Fort Belvoir, VA

10:48 AM EDT on April 28, 2017 (GMT -0400)
Davison Army Air Field

Weather History for KDAA - November, 2012

Change the Weather History Date:

Thursday, November 1, 2012

  Actual Average Record
Temperature  
Mean Temperature 44 °F -  
Max Temperature 53 °F 62 °F 78 °F (1999)
Min Temperature 36 °F 39 °F 28 °F (2002)
Degree Days  
Heating Degree Days 21    
Moisture  
Dew Point 36 °F    
Average Humidity 70    
Maximum Humidity 99    
Minimum Humidity 50    
Precipitation  
Precipitation 0.00 in - - ()
Sea Level Pressure  
Sea Level Pressure 29.72 in    
Wind  
Wind Speed 2 mph (WNW)    
Max Wind Speed 10 mph    
Max Gust Speed -    
Visibility 10 miles    
Events Rain    
Averages and records for this station are not official NWS values.
T = Trace of Precipitation, MM = Missing Value Source: NWS Daily Summary

Daily Weather History Graph

Daily Weather History Graph

Search for Another Location

Airport or City:

Trip Planner

Search our weather history database for the weather conditions in past years. The results will help you decide how hot, cold, wet, or windy it might be!

Date:

Astronomy

Nov. 01, 2012 Rise Set
Actual Time 7:36 AM EDT 6:07 PM EDT
Civil Twilight 7:08 AM EDT 6:35 PM EDT
Nautical Twilight 6:37 AM EDT 7:06 PM EDT
Astronomical Twilight 6:06 AM EDT 7:37 PM EDT
Moon 8:04 PM EDT (11/1) 10:05 AM EDT (11/1)
Length of Visible Light 11h 26m
Length of Day
10h 31m
Waning Gibbous, 93% of the Moon is Illuminated
Nov 1
Waning Gibbous
Nov 6
Last Quarter
Nov 13
New
Nov 20
First Quarter
Nov 28
Full

Hourly Weather History & Observations

Time (EDT) Temp. Windchill Dew Point Humidity Pressure Visibility Wind Dir Wind Speed Gust Speed Precip Events Conditions
12:55 AM 38.3 °F - 38.1 °F 99% 29.69 in 10.0 mi Calm Calm - N/A   Clear
1:55 AM 37.0 °F - 36.9 °F 99% 29.69 in 10.0 mi Calm Calm - N/A   Clear
2:55 AM 36.0 °F - 35.6 °F 99% 29.68 in 10.0 mi Calm Calm - N/A   Mostly Cloudy
3:55 AM 37.9 °F - 37.8 °F 99% 29.68 in 10.0 mi Calm Calm - N/A   Overcast
4:55 AM 38.8 °F - 38.7 °F 99% 29.68 in 10.0 mi Calm Calm - N/A   Overcast
5:55 AM 38.7 °F - 38.3 °F 99% 29.69 in 10.0 mi Calm Calm - N/A   Overcast
6:55 AM 39.7 °F - 39.6 °F 99% 29.69 in 10.0 mi Calm Calm - N/A   Overcast
7:55 AM 40.6 °F - 40.3 °F 99% 29.70 in 10.0 mi Calm Calm - N/A   Partly Cloudy
8:55 AM 46.4 °F 45.2 °F 39.2 °F 76% 29.72 in 10.0 mi WNW 3.5 mph - N/A   Mostly Cloudy
9:55 AM 49.5 °F - 34.9 °F 57% 29.73 in 10.0 mi West 5.8 mph - N/A   Overcast
10:55 AM 50.2 °F - 34.5 °F 55% 29.73 in 10.0 mi WNW 5.8 mph - N/A   Overcast
11:55 AM 51.3 °F - 33.6 °F 51% 29.74 in 10.0 mi WNW 9.2 mph - N/A   Overcast
12:55 PM 51.1 °F - 32.7 °F 50% 29.73 in 10.0 mi West 10.4 mph - N/A   Mostly Cloudy
1:29 PM 51.8 °F - 35.6 °F 54% 29.71 in 10.0 mi Variable 4.6 mph - N/A Rain Light Rain
1:43 PM 50.0 °F - 35.6 °F 58% 29.71 in 10.0 mi West 3.5 mph - N/A Rain Light Rain
1:44 PM 50.0 °F - 35.6 °F 58% 29.71 in 10.0 mi West 3.5 mph - N/A   Partly Cloudy
1:49 PM 50.0 °F - 35.6 °F 58% 29.71 in 10.0 mi West 4.6 mph - N/A Rain Light Rain
1:55 PM 50.9 °F - 36.5 °F 58% 29.71 in 10.0 mi West 4.6 mph - 0.00 in Rain Light Rain
2:31 PM 50.0 °F - 35.6 °F 58% 29.70 in 10.0 mi Variable 3.5 mph - N/A   Partly Cloudy
2:34 PM 50.0 °F - 35.6 °F 58% 29.70 in 10.0 mi WNW 4.6 mph - N/A Rain Light Rain
2:38 PM 50.0 °F - 37.4 °F 62% 29.70 in 10.0 mi WNW 4.6 mph - N/A   Scattered Clouds
2:55 PM 51.4 °F - 36.0 °F 56% 29.70 in 10.0 mi West 4.6 mph - 0.00 in   Partly Cloudy
3:55 PM 52.7 °F - 35.2 °F 52% 29.70 in 10.0 mi Variable 4.6 mph - N/A   Scattered Clouds
4:55 PM 52.7 °F - 34.9 °F 51% 29.70 in 10.0 mi West 4.6 mph - N/A   Scattered Clouds
5:55 PM 51.4 °F - 34.2 °F 52% 29.72 in 10.0 mi NW 8.1 mph - N/A   Overcast
6:55 PM 50.4 °F - 34.9 °F 55% 29.73 in 10.0 mi WNW 5.8 mph - N/A   Overcast
7:55 PM 49.5 °F - 35.8 °F 59% 29.75 in 10.0 mi WNW 4.6 mph - N/A   Scattered Clouds
8:55 PM 48.4 °F - 36.3 °F 63% 29.76 in 10.0 mi WNW 4.6 mph - N/A   Overcast
9:55 PM 48.2 °F - 34.3 °F 59% 29.76 in 10.0 mi WNW 3.5 mph - N/A   Mostly Cloudy
10:55 PM 42.1 °F - 37.8 °F 85% 29.78 in 10.0 mi Calm Calm - N/A   Scattered Clouds
11:55 PM 40.3 °F 38.2 °F 37.8 °F 91% 29.78 in 10.0 mi West 3.5 mph - N/A   Overcast